TimeEST,TemperatureF,Dew PointF,Humidity,Sea Level PressureIn,VisibilityMPH,Wind Direction,Wind SpeedMPH,Gust SpeedMPH,PrecipitationIn,Events,Conditions,WindDirDegrees,DateUTC
12:53 AM,35.1,28.0,76,29.86,9.0,NW,11.5,-,0.00,Snow,Light Snow,320,2012-12-11 05:53:00
1:04 AM,35.6,28.4,75,29.85,9.0,NW,9.2,-,0.00,Snow,Light Snow,310,2012-12-11 06:04:00
1:53 AM,35.1,27.0,72,29.87,9.0,NW,10.4,-,0.00,Snow,Light Snow,320,2012-12-11 06:53:00
2:53 AM,35.1,27.0,72,29.89,9.0,NW,8.1,-,0.00,,Overcast,310,2012-12-11 07:53:00
3:13 AM,35.6,26.6,70,29.88,10.0,WNW,6.9,-,N/A,,Overcast,300,2012-12-11 08:13:00
3:53 AM,36.0,28.0,73,29.90,10.0,NW,8.1,-,N/A,,Overcast,310,2012-12-11 08:53:00
4:51 AM,35.6,28.4,75,29.90,7.0,WSW,11.5,-,0.00,Snow,Light Snow,240,2012-12-11 09:51:00
4:53 AM,34.0,28.0,79,29.92,6.0,WSW,10.4,-,0.00,Snow,Light Snow,240,2012-12-11 09:53:00
5:03 AM,33.8,28.4,81,29.90,9.0,SW,9.2,-,0.00,Snow,Light Snow,230,2012-12-11 10:03:00
5:53 AM,34.0,28.0,79,29.95,9.0,SW,8.1,-,0.00,,Overcast,230,2012-12-11 10:53:00
6:53 AM,35.1,27.0,72,29.96,10.0,WSW,11.5,-,N/A,,Overcast,240,2012-12-11 11:53:00
7:53 AM,34.0,28.0,79,29.99,8.0,SW,12.7,-,0.00,Snow,Light Snow,230,2012-12-11 12:53:00
8:53 AM,35.1,28.0,76,30.01,10.0,WSW,13.8,-,0.01,,Overcast,240,2012-12-11 13:53:00
9:28 AM,35.6,28.4,75,30.01,10.0,West,11.5,-,N/A,,Mostly Cloudy,270,2012-12-11 14:28:00
9:37 AM,35.6,26.6,70,30.01,10.0,WSW,10.4,-,N/A,,Mostly Cloudy,240,2012-12-11 14:37:00
9:45 AM,35.6,28.4,75,30.02,10.0,West,10.4,-,N/A,,Mostly Cloudy,260,2012-12-11 14:45:00
9:53 AM,36.0,27.0,70,30.04,10.0,West,11.5,-,N/A,,Mostly Cloudy,260,2012-12-11 14:53:00
10:46 AM,35.6,26.6,70,30.05,10.0,WSW,13.8,-,N/A,,Overcast,240,2012-12-11 15:46:00
10:53 AM,34.0,28.9,82,30.07,10.0,WSW,12.7,-,N/A,,Overcast,240,2012-12-11 15:53:00
11:03 AM,35.6,28.4,75,30.05,10.0,WSW,12.7,-,N/A,,Overcast,250,2012-12-11 16:03:00
11:53 AM,37.9,28.0,68,30.06,10.0,West,11.5,-,N/A,,Mostly Cloudy,260,2012-12-11 16:53:00
12:53 PM,35.1,27.0,72,30.06,10.0,West,11.5,-,N/A,,Clear,260,2012-12-11 17:53:00
1:53 PM,37.0,27.0,67,30.07,10.0,West,10.4,-,N/A,,Scattered Clouds,280,2012-12-11 18:53:00
2:53 PM,37.0,27.0,67,30.08,10.0,WSW,6.9,-,N/A,,Overcast,250,2012-12-11 19:53:00
3:53 PM,35.1,28.0,76,30.09,10.0,West,12.7,-,0.00,,Overcast,260,2012-12-11 20:53:00
4:53 PM,35.1,27.0,72,30.12,10.0,SW,10.4,-,N/A,,Overcast,220,2012-12-11 21:53:00
5:53 PM,32.0,25.0,75,30.13,10.0,SW,10.4,-,N/A,,Partly Cloudy,230,2012-12-11 22:53:00
6:53 PM,33.1,24.1,70,30.15,10.0,SW,11.5,-,N/A,,Clear,230,2012-12-11 23:53:00
7:53 PM,32.0,23.0,69,30.17,10.0,SW,11.5,-,N/A,,Partly Cloudy,230,2012-12-12 00:53:00
8:53 PM,30.0,21.0,69,30.19,10.0,SW,8.1,-,N/A,,Clear,220,2012-12-12 01:53:00
9:53 PM,30.9,23.0,72,30.19,10.0,South,8.1,-,N/A,,Partly Cloudy,190,2012-12-12 02:53:00
10:53 PM,30.0,23.0,75,30.21,10.0,SW,10.4,-,N/A,,Clear,220,2012-12-12 03:53:00
11:53 PM,30.9,23.0,72,30.23,10.0,SSW,11.5,-,N/A,,Clear,210,2012-12-12 04:53:00